Regional Weather Roundup
Issued by NWS

Home | Current Version | Previous Version | Graphics & Text | Print | Product List | Glossary On
Versions: 1 2 3 4 5 6 7 8 9 10 11 12 13 14 15 16 17 18 19 20 21 22 23 24 25 26 27 28 29 30 31 32 33 34 35 36 37 38 39 40 41 42 43 44 45 46 47 48 49 50
000
ASUS43 KIND 172059
RWRIN

WEATHER ROUNDUP FOR INDIANA
NATIONAL WEATHER SERVICE INDIANAPOLIS IN
400 PM EST TUE JAN 17 2017

NOTE: "FAIR" INDICATES FEW OR NO CLOUDS BELOW 12,000 FEET WITH NO
SIGNIFICANT WEATHER AND/OR OBSTRUCTIONS TO VISIBILITY.

* - STATION DOES NOT REPORT WEATHER SUCH AS PRECIPITATION OR FOG.

+ - STATION NOT QUALITY CONTROLLED BY THE NATIONAL WEATHER SERVICE.
    USE DATA WITH CAUTION...ESPECIALLY DEWPOINT AND RELATIVE
    HUMIDITY OBSERVATIONS.

INZ001>003-010>013-019-020-172200-
NORTHWEST INDIANA

CITY           SKY/WX    TMP DP  RH WIND       PRES   REMARKS
GARY /AIRPORT/ CLOUDY    39  37  93 SW12      29.90R
MONTICELLO +   CLOUDY    41  40  95 W12       29.92S FOG
VALPARAISO     CLOUDY    39  37  93 W13       29.90R FOG

$$

LMZ046-743>745-172200-
SOUTHERN LAKE MICHIGAN

STATION/POSITION TIME  TEMP    WIND        PRES    WAVE
                       AIR SEA DIR/SP/G            HT
                 (UTC) (F)     (DEG/KT/KT) (MB)    (FT)
BURNS HARBOR     2030   37     240/ 10/ 12 1012.9R

$$

INZ004-005-014>016-021>024-172200-
NORTH CENTRAL INDIANA

CITY           SKY/WX    TMP DP  RH WIND       PRES   REMARKS
ELKHART        CLOUDY    39  39 100 W10       29.88R FOG
GOSHEN         CLOUDY    40  38  93 W15       29.88R FOG
SOUTH BEND     FOG       38  38 100 W14       29.89R VSB 1

$$

INZ006>009-017-018-025>027-172200-
NORTHEAST INDIANA

CITY           SKY/WX    TMP DP  RH WIND       PRES   REMARKS
ANGOLA *+      CLOUDY    41  39  93 W10       29.85R
FORT WAYNE     DRIZZLE   44  41  89 W14       29.90R FOG
KENDALLVILLE + LGT RAIN  41  41 100 W10       29.87R VSB 1

$$

INZ028-029-035-036-043>045-051>053-172200-
WEST CENTRAL INDIANA

CITY           SKY/WX    TMP DP  RH WIND       PRES   REMARKS
CRAWFORDSVL +  CLOUDY    41  41 100 W8        29.95R
LAFAYETTE      CLOUDY    42  41  96 W15G21    29.94R
TERRE HAUTE    CLOUDY    45  40  82 W15       29.98R

$$

INZ030>032-037>040-046>048-054>057-064-065-172200-
CENTRAL INDIANA

CITY           SKY/WX    TMP DP  RH WIND       PRES   REMARKS
ANDERSON       CLOUDY    45  43  93 SW12      29.93R FOG
INDIANAPOLIS   CLOUDY    45  41  86 W17       29.95R
-EAGLE CREEK   CLOUDY    45  40  82 W14G20    29.95R
KOKOMO +       CLOUDY    43  42  97 W15       29.93R FOG
MT COMFORT *+  CLOUDY    45  41  87 W14       29.94S
SHELBYVILLE    CLOUDY    48  40  73 W13       29.94S

$$

INZ033-034-041-042-049-050-058-059-172200-
EAST CENTRAL INDIANA

CITY           SKY/WX    TMP DP  RH WIND       PRES   REMARKS
MUNCIE         CLOUDY    46  43  89 W13       29.92R FOG

$$

INZ060-061-067>069-081>083-085>088-172200-
SOUTHWEST INDIANA

CITY           SKY/WX    TMP DP  RH WIND       PRES   REMARKS
EVANSVILLE     CLOUDY    48  41  76 W10G18    30.04R
HUNTINGBURG *+ CLOUDY    47  41  80 W12       30.02R

$$

INZ062-063-066-070>080-084-089>092-172200-
SOUTH CENTRAL AND SOUTHEAST INDIANA

CITY           SKY/WX    TMP DP  RH WIND       PRES   REMARKS
BLOOMINGTON    CLOUDY    46  40  79 W9        29.96S
MADISON *+     CLOUDY    52  43  71 W10       29.97R
SEYMOUR +      CLOUDY    50  43  76 W13       29.97R

$$





USA.gov is the U.S. government's official web portal to all federal, state and local government web resources and services.